Vero Beach, FL

3:55 PM EDT on June 23, 2017 (GMT -0400)
Vero Beach Municipal

Weather History for KVRB - April, 2014

Change the Weather History Date:

Tuesday, April 29, 2014

  Actual Average Record
Temperature  
Mean Temperature 80 °F 73 °F  
Max Temperature 87 °F 82 °F 94 °F (1986)
Min Temperature 73 °F 64 °F 50 °F (1992)
Degree Days  
Heating Degree Days 0 0  
Month to date heating degree days 5 13  
Since 1 July heating degree days 268 453  
Cooling Degree Days 15 8  
Month to date cooling degree days 215 182  
Year to date cooling degree days 543 450  
Growing Degree Days 30 (Base 50)    
Moisture  
Dew Point 74 °F    
Average Humidity 80    
Maximum Humidity 94    
Minimum Humidity 65    
Precipitation  
Precipitation 0.00 in 0.08 in 0.60 in (1989)
Month to date precipitation 1.99 2.64  
Year to date precipitation 10.49 11.93  
Sea Level Pressure  
Sea Level Pressure 29.96 in    
Wind  
Wind Speed 13 mph (SE)    
Max Wind Speed 28 mph    
Max Gust Speed 33 mph    
Visibility 10 miles    
Events Thunderstorm    
T = Trace of Precipitation, MM = Missing Value Source: NWS Daily Summary

Daily Weather History Graph

Daily Weather History Graph

Search for Another Location

Airport or City:

Trip Planner

Search our weather history database for the weather conditions in past years. The results will help you decide how hot, cold, wet, or windy it might be!

Date:

Astronomy

Apr. 29, 2014 Rise Set
Actual Time 6:43 AM EDT 7:54 PM EDT
Civil Twilight 6:19 AM EDT 8:19 PM EDT
Nautical Twilight 5:50 AM EDT 8:48 PM EDT
Astronomical Twilight 5:20 AM EDT 9:18 PM EDT
Moon 7:00 AM EDT (4/29) 8:31 PM EDT (4/29)
Length of Visible Light 13h 59m
Length of Day
13h 10m
New Moon, 0% of the Moon is Illuminated
Apr 29
New Moon
May 6
First Quarter
May 14
Full
May 21
Last Quarter
May 28
New

Hourly Weather History & Observations

Time (EDT) Temp. Heat Index Dew Point Humidity Pressure Visibility Wind Dir Wind Speed Gust Speed Precip Events Conditions
12:53 AM 77.0 °F - 72.0 °F 84% 29.95 in 10.0 mi SSE 9.2 mph - N/A   Clear
1:53 AM 75.0 °F - 72.0 °F 90% 29.94 in 10.0 mi SSE 6.9 mph - N/A   Clear
2:53 AM 73.9 °F - 72.0 °F 93% 29.92 in 10.0 mi SSE 5.8 mph - N/A   Clear
3:53 AM 75.9 °F - 73.0 °F 91% 29.91 in 10.0 mi SSE 8.1 mph - N/A   Clear
4:53 AM 75.0 °F - 73.0 °F 94% 29.91 in 10.0 mi South 5.8 mph - N/A   Clear
5:53 AM 73.0 °F - 72.0 °F 96% 29.91 in 10.0 mi SSE 6.9 mph - N/A   Clear
6:53 AM 73.9 °F - 72.0 °F 93% 29.94 in 10.0 mi South 4.6 mph - N/A   Clear
7:53 AM 77.0 °F - 73.9 °F 90% 29.96 in 10.0 mi South 3.5 mph - N/A   Clear
8:53 AM 81.0 °F 86.7 °F 75.0 °F 82% 29.97 in 10.0 mi SE 9.2 mph - N/A   Partly Cloudy
9:53 AM 84.0 °F 90.2 °F 73.0 °F 69% 29.97 in 10.0 mi SSE 11.5 mph - N/A   Scattered Clouds
10:53 AM 84.9 °F 93.3 °F 75.0 °F 72% 29.97 in 10.0 mi ESE 15.0 mph - N/A   Mostly Cloudy
11:53 AM 86.0 °F 95.1 °F 75.0 °F 70% 29.98 in 10.0 mi ESE 20.7 mph 27.6 mph N/A   Scattered Clouds
12:53 PM 86.0 °F 93.8 °F 73.9 °F 67% 29.96 in 10.0 mi SE 20.7 mph 31.1 mph N/A   Scattered Clouds
1:53 PM 87.1 °F 97.3 °F 75.9 °F 69% 29.96 in 10.0 mi SE 23.0 mph 32.2 mph N/A   Scattered Clouds
2:53 PM 86.0 °F 93.8 °F 73.9 °F 67% 29.94 in 10.0 mi SE 26.5 mph 32.2 mph N/A   Clear
3:53 PM 82.0 °F 87.9 °F 73.9 °F 76% 29.92 in 10.0 mi SE 18.4 mph 28.8 mph N/A   Clear
4:48 PM 80.6 °F 85.4 °F 73.4 °F 79% 29.93 in 10.0 mi SE 19.6 mph 29.9 mph N/A Thunderstorm Partly Cloudy
5:14 PM 81.0 °F 86.2 °F 73.9 °F 79% 29.95 in 10.0 mi SE 17.3 mph - N/A Thunderstorm Partly Cloudy
5:39 PM 81.0 °F 86.2 °F 73.9 °F 79% 29.95 in 10.0 mi South 9.2 mph - N/A   Mostly Cloudy
6:53 PM 80.1 °F 85.1 °F 75.0 °F 85% 29.94 in 10.0 mi SE 16.1 mph - N/A   Clear
7:53 PM 80.1 °F 85.4 °F 75.9 °F 87% 29.97 in 10.0 mi ESE 12.7 mph - N/A   Clear
8:53 PM 80.1 °F 85.4 °F 75.9 °F 87% 30.00 in 10.0 mi SE 9.2 mph - N/A   Scattered Clouds
9:53 PM 79.0 °F - 75.9 °F 90% 30.01 in 10.0 mi ESE 16.1 mph - N/A   Clear
10:53 PM 79.0 °F - 75.9 °F 90% 30.04 in 10.0 mi SE 13.8 mph - N/A   Partly Cloudy
11:53 PM 79.0 °F - 75.0 °F 88% 30.03 in 10.0 mi SE 13.8 mph - N/A   Clear